SCP
0 0 0 0 0 0 0 0 0 0 0 0 0 0 0 0 -0 -0 -0 -0 -0 -0 -0 -0 -0 -0 -0 -0 -0 -0 -0 -0 -0 -0 -0 -0 -0 -0 -0 -0 -0 0 0
0 0 0 1 1 1 0 0 0 0 0 0 0 0 0 0 0 -0 -0 -0 -0 -0 -0 -0 -0 -0 -0 -0 -0 -0 -0 -0 -0 -0 -0 -0 -0 -0 -0 -0 -0 -0 -0
1 0 0 0 0 0 0 0 0 0 0 0 0 0 0 0 0 0 -0 -0 -0 -0 -0 -0 -0 -0 -0 -0 -0 0 -0 -0 -0 0 0 -0 0 -0 -0 -0 -0 -0 -0
1 1 0 1 1 0 0 0 0 0 0 0 0 0 0 -0 0 0 0 -0 -0 -0 -0 -0 -0 -0 -0 -0 -0 -0 -0 -0 -0 0 -0 -0 -0 -0 -0 0 0 0 0
1 1 1 1 0 0 0 0 0 0 0 0 0 0 0 -0 0 0 0 -0 -0 -0 -0 -0 -0 -0 0 0 -0 -0 -0 -0 0 -0 -0 -0 -0 0 0 0 0 0 0
1 1 1 0 0 0 0 0 0 0 0 0 0 0 -0 -0 0 0 0 0 0 0 0 0 0 0 0 0 0 0 0 0 0 0 -0 -0 -0 0 0 0 0 0 0
1 0 0 0 0 0 0 0 0 0 0 0 0 -0 -0 -0 -0 0 0 0 0 0 0 0 0 0 0 0 0 0 0 0 0 0 -0 -0 -0 0 0 0 0 0 0
0 0 0 0 0 0 0 -0 0 0 0 0 -0 -0 -0 -0 0 0 0 0 0 0 0 0 0 0 0 0 0 0 0 0 0 0 0 -0 0 0 0 0 0 0 0
0 0 0 0 0 0 -0 -0 0 0 0 -0 -0 -0 -0 -0 0 0 0 0 0 0 0 0 0 0 0 0 0 0 0 0 0 -0 -0 -0 0 0 0 0 0 0 0
0 0 0 0 0 0 -0 0 0 -0 -0 0 0 -0 -0 0 0 0 0 0 0 0 0 0 0 0 0 0 0 0 0 0 0 0 -0 -0 0 0 0 0 0 0 0
0 0 0 0 -0 -0 -0 -0 0 -0 -0 -0 0 0 0 0 0 0 0 0 0 0 0 0 0 0 0 0 0 0 0 0 0 0 -0 0 0 0 0 0 0 0 0
0 -0 -0 -0 -0 -0 -0 -0 -0 -0 -0 0 0 0 0 0 0 0 0 0 0 0 0 0 0 0 0 0 0 0 0 0 0 0 0 0 0 0 0 0 0 0 0
-0 -0 -0 -0 0 0 -0 -0 -0 0 0 0 0 0 0 0 0 0 0 0 0 0 0 0 0 0 0 0 0 0 0 0 0 0 0 0 0 0 0 0 0 0 0
-0 -0 -0 -0 -0 -0 -0 -0 -0 -0 0 0 0 0 0 0 0 0 0 0 0 0 0 0 0 0 0 0 0 0 0 0 0 0 0 0 0 0 0 0 0 0 0
0 0 0 -0 -0 -0 -0 -0 -0 0 -0 0 0 0 0 0 0 0 0 0 0 0 0 0 0 0 0 0 0 0 0 0 0 0 0 0 0 0 0 0 0 0 0
0 -0 -0 -0 -0 0 0 0 0 0 0 0 0 0 0 0 0 0 0 0 0 0 0 0 0 0 0 0 0 0 0 0 0 0 0 0 0 0 0 0 0 0 0
0 -0 -0 -0 -0 -0 -0 -0 -0 0 0 0 0 0 0 0 0 0 0 0 0 0 0 0 0 0 0 0 0 0 0 0 0 0 0 0 0 0 0 0 0 0 0
-0 -0 -0 -0 -0 -0 -0 -0 0 0 0 0 0 0 0 0 0 0 0 0 0 0 0 0 0 0 0 0 0 0 0 0 0 0 0 0 0 0 0 0 0 0 0
-0 -0 -0 -0 -0 -0 0 0 0 0 0 0 0 0 0 0 0 0 0 0 0 0 0 0 0 0 0 0 0 0 0 0 0 0 0 0 0 0 0 0 0 0 0
-0 -0 -0 0 0 -0 0 0 0 0 0 0 0 0 0 0 0 0 0 0 0 0 0 0 0 0 0 0 0 0 0 0 0 0 0 0 0 0 0 0 0 0 0
0 0 0 0 0 -0 0 0 0 0 0 0 0 0 0 0 0 0 0 0 0 0 0 0 0 0 0 0 0 0 0 0 0 0 0 0 0 0 0 0 0 0 0
-0 0 0 0 -0 0 -0 0 0 0 0 0 0 0 0 0 0 0 0 0 0 0 0 0 0 0 0 0 0 0 0 0 0 0 0 0 0 0 0 0 0 0 0
-0 -0 -0 -0 -0 -0 -0 0 0 0 0 0 0 0 0 0 0 0 0 0 0 0 0 0 0 0 0 0 0 0 0 0 0 0 0 0 0 0 0 0 0 0 0
-0 -0 -0 -0 -0 -0 0 0 0 0 0 0 0 0 0 0 0 0 0 0 0 0 0 0 0 0 0 0 0 0 0 0 0 0 0 0 0 0 0 0 0 0 0
-0 -0 -0 -0 0 0 0 0 0 0 0 0 0 0 0 0 0 0 0 0 0 0 0 0 0 0 0 0 0 0 0 0 0 0 0 0 0 0 0 0 0 0 0
-0 0 -0 0 0 0 0 0 0 0 0 0 0 0 0 0 0 0 0 0 0 0 0 0 0 0 0 0 0 0 0 0 0 0 0 0 0 0 0 0 0 0 0
Wind_Speed_500mb
60 64 61 57 53 47 42 40 37 35 32 30 34 39 42 45 43 42 42 40 40 42 43 43 42 42 42 43 43 38 39 34 38 44 45 46 31 30 27 24 23 24 23
70 70 66 59 53 48 45 40 36 34 33 33 38 42 44 44 43 40 41 42 45 48 50 50 50 48 49 46 37 33 33 35 38 44 45 43 32 32 30 28 25 25 24
72 71 63 59 55 51 44 40 37 33 33 37 39 42 44 43 41 43 46 49 52 55 57 57 56 54 49 43 32 32 34 31 39 43 51 51 46 38 33 30 28 25 23
72 73 70 64 58 53 46 40 39 34 37 41 40 40 41 42 44 49 49 51 54 59 61 59 54 50 45 43 42 36 34 35 36 39 39 42 49 42 38 33 30 29 26
77 70 67 63 59 51 45 41 38 36 39 42 40 39 40 44 49 49 50 52 55 58 58 56 51 43 40 46 49 41 33 31 28 30 31 37 44 46 37 34 33 32 31
75 71 68 63 57 50 45 41 37 36 39 40 38 37 43 48 49 49 49 49 51 53 53 53 53 49 38 36 39 34 29 33 26 27 30 38 41 42 44 36 32 31 30
76 73 69 64 56 48 42 40 38 35 38 38 38 40 46 48 47 46 45 45 47 46 43 42 43 39 35 39 38 32 25 28 29 30 31 34 35 36 40 36 30 27 27
75 76 72 64 59 52 43 36 31 34 36 37 38 44 48 48 46 43 41 40 40 37 36 34 32 31 32 32 30 32 30 24 24 28 29 31 32 34 36 32 28 24 22
57 59 68 66 58 46 30 24 29 32 37 39 41 44 46 45 42 40 37 34 32 30 27 25 24 22 25 29 24 19 23 24 21 25 28 32 37 39 33 35 29 23 21
27 61 66 69 69 61 46 34 37 38 41 42 41 43 43 40 35 31 30 28 25 23 23 20 17 20 18 23 24 19 21 25 22 24 28 32 36 38 39 40 30 26 24
15 11 24 29 61 43 43 38 39 38 41 45 43 42 38 37 33 29 26 24 22 22 22 15 14 12 10 19 24 31 28 30 19 27 24 28 32 36 42 38 40 34 27
38 36 49 64 50 42 41 41 42 44 43 42 37 37 36 32 28 28 31 25 26 22 17 13 7 3 9 18 21 31 31 26 25 25 19 21 26 26 35 41 45 38 32
46 49 54 47 45 42 41 41 43 46 45 40 34 32 29 27 26 22 23 22 22 20 13 7 5 3 3 8 17 25 26 28 29 28 25 26 27 31 35 35 41 37 31
50 52 52 49 47 45 42 45 48 49 43 35 33 27 23 22 21 21 26 19 20 14 9 10 13 8 8 20 26 23 24 29 26 23 24 31 36 42 37 30 32 25 23
50 56 51 49 49 47 45 49 49 45 40 35 28 24 19 16 18 21 23 16 18 16 15 14 12 17 23 29 26 23 24 27 35 36 38 39 39 32 27 23 17 18 22
55 57 51 48 49 51 53 49 45 42 37 31 26 26 27 23 19 21 19 21 23 22 21 18 19 24 29 28 25 32 30 32 32 32 38 40 35 25 22 15 12 7 15
62 57 54 47 53 53 52 43 41 39 36 33 26 22 17 19 22 29 26 24 24 24 22 21 23 26 26 28 31 35 32 30 33 39 36 31 28 11 6 9 6 5 11
63 62 58 54 55 53 47 46 50 49 40 33 28 14 7 13 32 28 23 23 21 20 16 22 25 30 33 33 36 30 24 28 26 27 17 12 9 10 7 6 8 9 14
60 64 64 60 61 50 53 55 54 44 37 33 25 18 10 22 28 23 22 20 17 16 22 24 30 32 37 35 34 29 27 19 23 11 12 14 10 3 12 4 7 15 22
64 64 68 68 61 57 59 55 49 42 38 28 17 17 17 28 28 26 24 20 17 17 23 28 32 33 33 37 34 30 29 19 12 15 19 19 17 15 14 22 28 29 24
71 65 71 70 66 63 64 62 54 46 34 21 19 25 28 25 24 24 17 14 20 25 27 30 30 32 35 34 35 39 25 17 25 11 17 26 29 34 41 41 35 33 25
70 63 58 64 66 63 59 56 53 46 31 23 22 26 26 25 21 16 17 22 26 29 32 30 32 34 36 34 37 41 8 28 15 44 22 45 34 28 32 38 43 45 39
80 67 57 59 61 61 56 56 54 46 33 35 33 32 29 24 19 19 24 27 28 35 31 32 35 40 41 36 35 28 15 11 49 21 48 18 15 32 40 43 40 34 35
80 68 59 53 57 57 56 63 60 50 50 45 38 33 31 26 25 31 27 27 35 33 32 34 41 44 38 37 36 37 33 35 43 41 24 37 45 44 47 42 39 36 41
79 70 63 56 47 51 57 66 61 52 43 42 42 38 37 38 39 34 29 29 33 33 35 41 45 40 34 34 31 31 36 42 48 44 59 40 44 49 50 45 42 43 50
73 64 65 60 48 52 53 68 65 54 46 49 53 49 44 42 36 30 29 30 34 36 42 44 39 36 34 30 30 37 40 40 41 45 50 57 61 60 55 43 40 48 51
Wind_Direction_500mb
168 159 158 159 156 153 150 144 137 131 124 115 112 111 108 105 102 97 92 89 88 86 86 87 87 87 85 83 82 74 66 72 65 57 49 43 46 52 49 44 40 39 29
162 159 159 160 156 154 151 145 137 132 125 117 115 114 110 104 99 94 94 94 92 91 89 88 89 90 88 81 73 77 75 67 57 40 34 33 39 45 50 46 44 37 29
161 159 159 158 159 155 152 146 139 134 124 119 118 115 111 106 104 102 100 100 97 93 90 88 92 93 87 70 62 71 71 60 56 42 40 42 39 36 41 40 42 40 36
161 161 163 160 157 156 151 146 138 131 126 123 122 116 111 108 107 107 106 103 99 93 89 88 92 95 85 70 74 82 77 65 48 43 34 26 28 32 35 38 38 33 32
164 162 162 160 157 154 148 145 134 132 129 124 123 118 114 112 112 110 108 103 99 95 91 88 90 94 90 73 77 78 81 68 50 34 30 30 26 29 27 30 35 34 31
166 165 159 156 154 150 148 141 134 135 128 126 121 119 117 118 115 112 107 104 99 95 90 87 86 89 96 84 69 77 68 61 53 39 32 22 23 23 21 16 21 24 27
169 161 157 155 150 145 138 138 133 134 132 129 128 127 124 121 117 112 109 107 101 95 89 82 79 78 80 82 63 59 62 58 47 35 21 15 16 13 9 10 11 14 11
164 161 155 149 141 138 138 127 133 135 133 133 134 134 130 125 120 116 114 109 103 98 89 81 78 79 71 72 64 56 52 48 33 27 20 8 5 3 1 1 3 3 6
155 150 146 141 129 119 127 132 133 144 144 142 139 135 128 125 124 122 117 112 108 100 93 85 83 74 65 47 52 48 36 22 12 11 9 3 353 347 352 350 350 348 348
125 111 110 121 133 140 137 165 152 149 148 140 137 132 128 128 123 118 114 111 107 102 92 85 73 62 45 20 21 23 10 8 2 354 352 348 341 340 344 343 347 344 338
142 145 126 124 140 153 166 160 154 150 146 141 139 135 127 120 114 116 111 104 102 100 92 76 62 42 15 350 355 358 355 1 352 348 342 339 339 337 333 338 339 337 332
119 169 154 149 158 166 165 161 155 153 149 145 141 133 127 121 108 106 114 119 117 125 118 109 116 320 333 345 348 348 349 353 350 348 342 334 333 341 335 332 332 336 335
142 147 161 166 171 172 169 162 158 154 149 146 145 140 141 137 129 134 129 147 143 157 154 169 202 213 11 341 335 329 328 324 329 332 326 319 323 323 325 323 328 326 327
156 162 166 166 174 175 172 164 159 160 157 155 156 153 154 151 147 153 168 169 171 174 174 191 191 190 286 318 325 324 324 323 323 321 313 311 310 314 318 315 322 314 320
158 165 165 169 175 173 170 161 160 164 168 174 166 163 170 174 165 167 175 187 180 183 209 219 250 268 280 300 315 315 317 308 308 308 305 306 305 312 325 318 308 313 326
166 173 170 164 173 174 168 167 171 176 181 182 182 179 180 186 202 204 201 212 214 226 245 270 284 294 305 312 311 318 315 303 302 296 297 297 292 304 315 290 282 331 336
179 180 175 167 171 172 174 182 187 185 191 188 176 160 177 199 210 223 235 231 228 242 262 280 296 306 302 302 304 314 312 307 297 299 304 296 285 276 297 263 270 324 349
176 179 174 178 180 186 190 192 193 193 199 193 186 191 242 217 229 227 220 223 231 252 271 293 298 298 304 307 307 317 313 302 308 319 323 326 13 91 101 244 320 307 298
178 180 184 186 190 195 188 190 197 200 204 204 219 265 262 208 208 206 210 227 243 274 289 291 298 309 310 317 326 328 324 308 307 304 296 317 357 52 164 244 310 314 319
183 186 191 193 193 194 196 202 204 204 206 223 268 266 221 202 198 204 218 234 259 284 291 303 308 312 319 323 327 322 321 299 230 289 295 293 304 322 311 301 303 310 321
188 188 192 194 196 199 205 208 211 210 221 257 250 210 205 202 205 216 227 255 282 292 306 312 321 322 321 323 327 321 335 180 281 268 308 305 302 302 306 308 310 312 316
193 193 196 199 201 203 209 210 211 216 238 246 237 202 203 204 217 234 258 281 293 305 311 314 316 319 320 319 318 325 295 299 238 316 315 317 306 302 313 307 308 305 306
198 200 204 202 207 207 209 210 211 222 238 230 220 213 208 212 221 240 256 272 297 312 308 307 315 318 315 312 315 322 315 279 311 318 317 307 269 292 304 302 304 301 303
204 205 208 209 208 211 214 214 217 226 239 231 218 220 222 224 228 246 270 297 299 297 300 305 308 307 305 307 310 313 312 306 310 310 303 292 298 299 302 300 294 297 301
206 208 213 207 213 217 219 217 222 231 238 221 215 220 214 217 234 249 265 278 283 284 287 293 299 297 302 304 310 304 306 306 305 300 307 305 291 296 297 294 297 298 305
202 212 207 205 209 211 216 213 220 221 224 217 217 217 215 221 233 242 252 265 275 284 294 299 299 304 308 302 303 305 308 309 303 301 299 298 296 298 298 286 289 299 303
Wind_Speed_850mb
60 64 61 57 53 47 42 40 37 35 32 30 34 39 42 45 43 42 42 40 40 42 43 43 42 42 42 43 43 38 39 34 38 44 45 46 31 30 27 24 23 24 23
70 70 66 59 53 48 45 40 36 34 33 33 38 42 44 44 43 40 41 42 45 48 50 50 50 48 49 46 37 33 33 35 38 44 45 43 32 32 30 28 25 25 24
72 71 63 59 55 51 44 40 37 33 33 37 39 42 44 43 41 43 46 49 52 55 57 57 56 54 49 43 32 32 34 31 39 43 51 51 46 38 33 30 28 25 23
72 73 70 64 58 53 46 40 39 34 37 41 40 40 41 42 44 49 49 51 54 59 61 59 54 50 45 43 42 36 34 35 36 39 39 42 49 42 38 33 30 29 26
77 70 67 63 59 51 45 41 38 36 39 42 40 39 40 44 49 49 50 52 55 58 58 56 51 43 40 46 49 41 33 31 28 30 31 37 44 46 37 34 33 32 31
75 71 68 63 57 50 45 41 37 36 39 40 38 37 43 48 49 49 49 49 51 53 53 53 53 49 38 36 39 34 29 33 26 27 30 38 41 42 44 36 32 31 30
76 73 69 64 56 48 42 40 38 35 38 38 38 40 46 48 47 46 45 45 47 46 43 42 43 39 35 39 38 32 25 28 29 30 31 34 35 36 40 36 30 27 27
75 76 72 64 59 52 43 36 31 34 36 37 38 44 48 48 46 43 41 40 40 37 36 34 32 31 32 32 30 32 30 24 24 28 29 31 32 34 36 32 28 24 22
57 59 68 66 58 46 30 24 29 32 37 39 41 44 46 45 42 40 37 34 32 30 27 25 24 22 25 29 24 19 23 24 21 25 28 32 37 39 33 35 29 23 21
27 61 66 69 69 61 46 34 37 38 41 42 41 43 43 40 35 31 30 28 25 23 23 20 17 20 18 23 24 19 21 25 22 24 28 32 36 38 39 40 30 26 24
15 11 24 29 61 43 43 38 39 38 41 45 43 42 38 37 33 29 26 24 22 22 22 15 14 12 10 19 24 31 28 30 19 27 24 28 32 36 42 38 40 34 27
38 36 49 64 50 42 41 41 42 44 43 42 37 37 36 32 28 28 31 25 26 22 17 13 7 3 9 18 21 31 31 26 25 25 19 21 26 26 35 41 45 38 32
46 49 54 47 45 42 41 41 43 46 45 40 34 32 29 27 26 22 23 22 22 20 13 7 5 3 3 8 17 25 26 28 29 28 25 26 27 31 35 35 41 37 31
50 52 52 49 47 45 42 45 48 49 43 35 33 27 23 22 21 21 26 19 20 14 9 10 13 8 8 20 26 23 24 29 26 23 24 31 36 42 37 30 32 25 23
50 56 51 49 49 47 45 49 49 45 40 35 28 24 19 16 18 21 23 16 18 16 15 14 12 17 23 29 26 23 24 27 35 36 38 39 39 32 27 23 17 18 22
55 57 51 48 49 51 53 49 45 42 37 31 26 26 27 23 19 21 19 21 23 22 21 18 19 24 29 28 25 32 30 32 32 32 38 40 35 25 22 15 12 7 15
62 57 54 47 53 53 52 43 41 39 36 33 26 22 17 19 22 29 26 24 24 24 22 21 23 26 26 28 31 35 32 30 33 39 36 31 28 11 6 9 6 5 11
63 62 58 54 55 53 47 46 50 49 40 33 28 14 7 13 32 28 23 23 21 20 16 22 25 30 33 33 36 30 24 28 26 27 17 12 9 10 7 6 8 9 14
60 64 64 60 61 50 53 55 54 44 37 33 25 18 10 22 28 23 22 20 17 16 22 24 30 32 37 35 34 29 27 19 23 11 12 14 10 3 12 4 7 15 22
64 64 68 68 61 57 59 55 49 42 38 28 17 17 17 28 28 26 24 20 17 17 23 28 32 33 33 37 34 30 29 19 12 15 19 19 17 15 14 22 28 29 24
71 65 71 70 66 63 64 62 54 46 34 21 19 25 28 25 24 24 17 14 20 25 27 30 30 32 35 34 35 39 25 17 25 11 17 26 29 34 41 41 35 33 25
70 63 58 64 66 63 59 56 53 46 31 23 22 26 26 25 21 16 17 22 26 29 32 30 32 34 36 34 37 41 8 28 15 44 22 45 34 28 32 38 43 45 39
80 67 57 59 61 61 56 56 54 46 33 35 33 32 29 24 19 19 24 27 28 35 31 32 35 40 41 36 35 28 15 11 49 21 48 18 15 32 40 43 40 34 35
80 68 59 53 57 57 56 63 60 50 50 45 38 33 31 26 25 31 27 27 35 33 32 34 41 44 38 37 36 37 33 35 43 41 24 37 45 44 47 42 39 36 41
79 70 63 56 47 51 57 66 61 52 43 42 42 38 37 38 39 34 29 29 33 33 35 41 45 40 34 34 31 31 36 42 48 44 59 40 44 49 50 45 42 43 50
73 64 65 60 48 52 53 68 65 54 46 49 53 49 44 42 36 30 29 30 34 36 42 44 39 36 34 30 30 37 40 40 41 45 50 57 61 60 55 43 40 48 51
Wind_Direction_850mb
168 159 158 159 156 153 150 144 137 131 124 115 112 111 108 105 102 97 92 89 88 86 86 87 87 87 85 83 82 74 66 72 65 57 49 43 46 52 49 44 40 39 29
162 159 159 160 156 154 151 145 137 132 125 117 115 114 110 104 99 94 94 94 92 91 89 88 89 90 88 81 73 77 75 67 57 40 34 33 39 45 50 46 44 37 29
161 159 159 158 159 155 152 146 139 134 124 119 118 115 111 106 104 102 100 100 97 93 90 88 92 93 87 70 62 71 71 60 56 42 40 42 39 36 41 40 42 40 36
161 161 163 160 157 156 151 146 138 131 126 123 122 116 111 108 107 107 106 103 99 93 89 88 92 95 85 70 74 82 77 65 48 43 34 26 28 32 35 38 38 33 32
164 162 162 160 157 154 148 145 134 132 129 124 123 118 114 112 112 110 108 103 99 95 91 88 90 94 90 73 77 78 81 68 50 34 30 30 26 29 27 30 35 34 31
166 165 159 156 154 150 148 141 134 135 128 126 121 119 117 118 115 112 107 104 99 95 90 87 86 89 96 84 69 77 68 61 53 39 32 22 23 23 21 16 21 24 27
169 161 157 155 150 145 138 138 133 134 132 129 128 127 124 121 117 112 109 107 101 95 89 82 79 78 80 82 63 59 62 58 47 35 21 15 16 13 9 10 11 14 11
164 161 155 149 141 138 138 127 133 135 133 133 134 134 130 125 120 116 114 109 103 98 89 81 78 79 71 72 64 56 52 48 33 27 20 8 5 3 1 1 3 3 6
155 150 146 141 129 119 127 132 133 144 144 142 139 135 128 125 124 122 117 112 108 100 93 85 83 74 65 47 52 48 36 22 12 11 9 3 353 347 352 350 350 348 348
125 111 110 121 133 140 137 165 152 149 148 140 137 132 128 128 123 118 114 111 107 102 92 85 73 62 45 20 21 23 10 8 2 354 352 348 341 340 344 343 347 344 338
142 145 126 124 140 153 166 160 154 150 146 141 139 135 127 120 114 116 111 104 102 100 92 76 62 42 15 350 355 358 355 1 352 348 342 339 339 337 333 338 339 337 332
119 169 154 149 158 166 165 161 155 153 149 145 141 133 127 121 108 106 114 119 117 125 118 109 116 320 333 345 348 348 349 353 350 348 342 334 333 341 335 332 332 336 335
142 147 161 166 171 172 169 162 158 154 149 146 145 140 141 137 129 134 129 147 143 157 154 169 202 213 11 341 335 329 328 324 329 332 326 319 323 323 325 323 328 326 327
156 162 166 166 174 175 172 164 159 160 157 155 156 153 154 151 147 153 168 169 171 174 174 191 191 190 286 318 325 324 324 323 323 321 313 311 310 314 318 315 322 314 320
158 165 165 169 175 173 170 161 160 164 168 174 166 163 170 174 165 167 175 187 180 183 209 219 250 268 280 300 315 315 317 308 308 308 305 306 305 312 325 318 308 313 326
166 173 170 164 173 174 168 167 171 176 181 182 182 179 180 186 202 204 201 212 214 226 245 270 284 294 305 312 311 318 315 303 302 296 297 297 292 304 315 290 282 331 336
179 180 175 167 171 172 174 182 187 185 191 188 176 160 177 199 210 223 235 231 228 242 262 280 296 306 302 302 304 314 312 307 297 299 304 296 285 276 297 263 270 324 349
176 179 174 178 180 186 190 192 193 193 199 193 186 191 242 217 229 227 220 223 231 252 271 293 298 298 304 307 307 317 313 302 308 319 323 326 13 91 101 244 320 307 298
178 180 184 186 190 195 188 190 197 200 204 204 219 265 262 208 208 206 210 227 243 274 289 291 298 309 310 317 326 328 324 308 307 304 296 317 357 52 164 244 310 314 319
183 186 191 193 193 194 196 202 204 204 206 223 268 266 221 202 198 204 218 234 259 284 291 303 308 312 319 323 327 322 321 299 230 289 295 293 304 322 311 301 303 310 321
188 188 192 194 196 199 205 208 211 210 221 257 250 210 205 202 205 216 227 255 282 292 306 312 321 322 321 323 327 321 335 180 281 268 308 305 302 302 306 308 310 312 316
193 193 196 199 201 203 209 210 211 216 238 246 237 202 203 204 217 234 258 281 293 305 311 314 316 319 320 319 318 325 295 299 238 316 315 317 306 302 313 307 308 305 306
198 200 204 202 207 207 209 210 211 222 238 230 220 213 208 212 221 240 256 272 297 312 308 307 315 318 315 312 315 322 315 279 311 318 317 307 269 292 304 302 304 301 303
204 205 208 209 208 211 214 214 217 226 239 231 218 220 222 224 228 246 270 297 299 297 300 305 308 307 305 307 310 313 312 306 310 310 303 292 298 299 302 300 294 297 301
206 208 213 207 213 217 219 217 222 231 238 221 215 220 214 217 234 249 265 278 283 284 287 293 299 297 302 304 310 304 306 306 305 300 307 305 291 296 297 294 297 298 305
202 212 207 205 209 211 216 213 220 221 224 217 217 217 215 221 233 242 252 265 275 284 294 299 299 304 308 302 303 305 308 309 303 301 299 298 296 298 298 286 289 299 303